Regional Weather Roundup
Issued by NWS

Home | Current Version | Previous Version | Text Only | Print | Product List | Glossary On
Versions: 1 2 3 4 5 6 7 8 9 10 11 12 13 14 15 16 17 18 19 20 21 22 23 24 25 26 27 28
000
ASUS45 KBOI 210110
RWRID

IDAHO REGIONAL WEATHER ROUNDUP
NATIONAL WEATHER SERVICE BOISE ID
700 PM MDT SUN MAY 20 2018

NOTE: "FAIR" INDICATES FEW OR NO CLOUDS BELOW 12000 FEET
WITH NO SIGNIFICANT WEATHER AND/OR OBSTRUCTIONS TO VISIBILITY

IDZ012-014-210200-
SOUTHWEST IDAHO


CITY           SKY/WX    TMP DP  RH WIND       PRES   REMARKS
BOISE          PTSUNNY   71  52  50 CALM      29.82F
CALDWELL       PTSUNNY   73  50  44 W18       29.82S
MOUNTAIN HOME  MOSUNNY   71  50  47 S5        29.84R
$$

IDZ016-017-210200-
SOUTHCENTRAL IDAHO


CITY           SKY/WX    TMP DP  RH WIND       PRES   REMARKS
BURLEY         CLOUDY    60  50  69 SE15G21   29.88F
JEROME         PTSUNNY   63  55  75 E17G24    29.90S
TWIN FALLS     PTSUNNY   60  54  80 E8        29.90R
$$

IDZ019>023-210200-
SOUTHEAST IDAHO


CITY           SKY/WX    TMP DP  RH WIND       PRES   REMARKS
IDAHO FALLS    CLOUDY    59  50  72 N8        29.91F
POCATELLO      PTSUNNY   61  50  67 NW14      29.91S
REXBURG        CLOUDY    62  42  47 W15G25    29.92R
$$

IDZ006-010-011-018-031-032-210200-
CENTRAL IDAHO MOUNTAINS


CITY           SKY/WX    TMP DP  RH WIND       PRES   REMARKS
MCCALL         CLOUDY    59  45  59 E14       29.90S
HAILEY         PTSUNNY   55  52  88 W7        29.97S
STANLEY          N/A     47  45  93 S7        30.01R
SALMON         CLOUDY    66  47  50 N7        29.88F
CHALLIS        HVY RAIN  55  48  77 S13G28    29.95R
$$

IDZ002-004-006-007-026-210200-
NORTHERN IDAHO


CITY           SKY/WX    TMP DP  RH WIND       PRES   REMARKS
LEWISTON       PTSUNNY   72  57  59 W6        29.85S
LOWELL           N/A     64  58  80 N3        29.85R
COEUR D`ALENE  MOSUNNY   75  44  33 W9        29.85F
MULLAN PASS    CLOUDY    51  42  71 N3        30.00S
$$




USA.gov is the U.S. government's official web portal to all federal, state and local government web resources and services.